[[{"header":{"parameterUnit":"m.s-1","parameterCategory":1,"la1":30.2991,"la2":30.254,"lo1":-89.0895,"lo2":-89.0444,"dy":0.0017,"dx":0.0017,"nx":28,"ny":28,"refTime":"2025-04-04T09:00:00:Z","depth":0,"parameterNumber":2,"parameterNumberName":"U-component_of_WINDS"},"data":[0,0,0,0,0,0,0,0,0,0,0,0,0,0,0,0,0,0,0,0,0,0,0,0,0,0,0,0,0,0,0,0,0,0,0,0,0,0,0,0,0,0,0,0,0,0,0,0,0,0,0,0,0,0,0,0,0,0,-0.6921,-0.6922,0,-0.7002,-0.7003,-0.7004,-0.7059,-0.706,-0.706,-0.706,-0.7146,-0.7148,-0.715,0,0,0,0,0,0,0,0,0,0,0,0,0,-0.6816,-0.6818,-0.6921,-0.6922,-0.6923,-0.7002,-0.7003,-0.7004,-0.7059,-0.706,-0.706,-0.706,-0.7145,-0.7147,-0.715,0,0,0,0,0,0,0,0,0,0,0,0,0,-0.6876,-0.6818,-0.6921,-0.696,-0.6964,-0.7002,-0.7003,-0.7005,-0.7059,-0.706,-0.706,-0.7061,-0.7144,-0.7147,-0.715,-0.7156,0,0,-0.7159,-0.716,0,0,0,0,0,0,0,0,-0.6873,-0.688,-0.6953,-0.6957,-0.6962,-0.7021,-0.6998,-0.7056,-0.7059,-0.7023,-0.706,-0.7061,-0.7104,-0.711,-0.7124,-0.716,-0.7164,-0.7159,-0.7161,-0.7162,-0.7163,0,0,0,0,0,0,0,-0.6868,-0.6877,-0.6953,-0.6954,-0.696,-0.6974,-0.6983,-0.7009,-0.7059,-0.7026,-0.703,-0.7039,-0.7107,-0.7121,-0.7127,-0.7165,-0.7159,-0.7162,-0.7163,-0.7164,-0.7212,-0.7212,0,0,0,0,0,0,-0.6858,-0.6873,-0.6951,-0.6956,-0.6918,-0.6976,-0.6986,-0.7002,-0.7059,-0.7069,-0.7039,-0.7041,-0.7116,-0.7123,-0.713,-0.7142,-0.7162,-0.7165,-0.7166,-0.7212,-0.7212,-0.7211,0,0,0,0,0,0,-0.6855,-0.6864,-0.6947,-0.6915,-0.6927,-0.6977,-0.6994,-0.7003,-0.7018,-0.7069,-0.7078,-0.7044,-0.7117,-0.7126,-0.7149,-0.7146,-0.7166,-0.7169,-0.7213,-0.7212,-0.7212,-0.7165,0,0,0,0,0,0,-0.6852,-0.6863,-0.6865,-0.6915,-0.6929,-0.6964,-0.6994,-0.7004,-0.7022,-0.7027,-0.7076,-0.7085,-0.7118,-0.7145,-0.7152,-0.715,-0.7171,-0.7214,-0.7213,-0.7212,-0.7167,-0.7163,-0.7159,0,0,0,0,0,-0.6848,-0.6849,-0.6865,-0.6874,-0.6932,-0.6964,-0.6972,-0.7009,-0.7022,-0.7025,-0.7058,-0.7084,-0.7145,-0.7147,-0.7156,-0.7154,-0.7214,-0.7213,-0.7212,-0.7169,-0.7164,-0.7159,0,0,0,0,0,0,-0.6797,-0.6856,-0.6874,-0.6891,-0.6922,-0.6973,-0.6978,-0.7002,-0.7031,-0.7034,-0.708,-0.7091,-0.711,-0.7134,-0.7136,-0.7164,-0.7183,-0.7183,-0.7147,-0.7142,-0.7138,-0.7132,-0.7173,0,0,0,0,0,-0.6788,-0.6808,-0.6859,-0.6869,-0.6884,-0.6928,-0.6943,-0.6969,-0.7004,-0.7017,-0.7052,-0.7085,-0.7112,-0.7128,-0.7156,-0.7171,-0.7183,-0.7174,-0.717,-0.7167,-0.7167,-0.7178,-0.7175,-0.7208,-0.7208,-0.7208,0,0,-0.6769,-0.6804,-0.6814,-0.686,-0.6887,-0.6908,-0.6939,-0.6959,-0.6976,-0.7021,-0.7045,-0.7072,-0.7112,-0.7131,-0.7142,-0.7152,-0.7161,-0.7166,-0.7162,-0.7165,-0.7177,-0.7174,-0.7171,-0.7207,-0.7207,-0.7207,0,0,-0.6746,-0.6774,-0.6785,-0.6812,-0.6852,-0.6882,-0.6885,-0.6933,-0.6952,-0.6977,-0.7012,-0.7032,-0.7077,-0.7105,-0.7124,-0.7112,-0.7138,-0.712,-0.7099,-0.7109,-0.7107,-0.7105,-0.7101,-0.7099,-0.712,-0.712,-0.712,0,-0.6718,-0.675,-0.6789,-0.6807,-0.6827,-0.6868,-0.6881,-0.6906,-0.6953,-0.6966,-0.6977,-0.7035,-0.7065,-0.7092,-0.7089,-0.7104,-0.7109,-0.7114,-0.7104,-0.7102,-0.7101,-0.7098,-0.7097,-0.7117,-0.7118,-0.7118,-0.7118,0,-0.6713,-0.6735,-0.674,-0.6784,-0.6805,-0.682,-0.6863,-0.6879,-0.6903,-0.6932,-0.6958,-0.6995,-0.7031,-0.704,-0.7064,-0.7071,-0.7076,-0.7095,-0.7115,-0.7095,-0.7093,-0.7092,-0.7114,-0.7115,-0.7116,-0.7116,0,0,-0.666,-0.6726,-0.6727,-0.6748,-0.6796,-0.6815,-0.6833,-0.6868,-0.6881,-0.6913,-0.693,-0.6967,-0.6985,-0.7008,-0.7036,-0.7044,-0.7034,-0.7062,-0.7064,-0.7056,-0.7045,-0.703,-0.7028,-0.7051,-0.7051,-0.7051,-0.7041,0,-0.6645,-0.6678,-0.6714,-0.6736,-0.6757,-0.6797,-0.6813,-0.6845,-0.6873,-0.6896,-0.6927,-0.6953,-0.6974,-0.6988,-0.6999,-0.7032,-0.7032,-0.7034,-0.7068,-0.7069,-0.7057,-0.7027,-0.7012,-0.7002,-0.7041,-0.7041,-0.7041,0,-0.6631,-0.666,-0.6683,-0.673,-0.6741,-0.6754,-0.6789,-0.681,-0.6848,-0.6868,-0.6893,-0.6923,-0.6945,-0.6962,-0.6995,-0.6995,-0.7011,-0.703,-0.7031,-0.7036,-0.7054,-0.7032,-0.6999,-0.6998,-0.704,-0.704,-0.704,0,-0.659,-0.6636,-0.6656,-0.6672,-0.6727,-0.6736,-0.676,-0.6798,-0.6817,-0.6848,-0.6861,-0.6894,-0.6913,-0.6939,-0.6977,-0.6986,-0.7006,-0.7026,-0.7024,-0.7023,-0.7027,-0.7026,-0.6997,-0.7036,-0.7036,-0.7036,-0.7036,0,-0.6569,-0.6582,-0.6638,-0.6651,-0.6667,-0.6709,-0.6724,-0.6751,-0.6785,-0.6804,-0.6841,-0.6859,-0.6908,-0.6932,-0.6963,-0.6986,-0.6994,-0.7011,-0.7019,-0.7008,-0.7006,-0.7019,-0.7021,-0.7036,-0.7036,-0.7036,-0.7036,0,-0.6527,-0.6565,-0.659,-0.664,-0.6653,-0.6662,-0.6706,-0.672,-0.675,-0.6774,-0.6782,-0.683,-0.686,-0.6901,-0.6944,-0.6964,-0.6983,-0.6996,-0.697,-0.6975,-0.6971,-0.6971,-0.695,-0.695,-0.6988,-0.6988,-0.6988,0,-0.6511,-0.6522,-0.6573,-0.6588,-0.661,-0.6634,-0.6654,-0.6696,-0.6715,-0.6759,-0.6768,-0.6801,-0.6829,-0.6876,-0.6915,-0.6948,-0.6962,-0.6952,-0.6967,-0.6956,-0.6963,-0.6962,-0.6964,-0.6949,-0.6948,-0.6948,-0.6947,0,-0.6479,-0.6498,-0.6524,-0.6557,-0.6579,-0.6607,-0.6637,-0.6647,-0.6696,-0.6716,-0.6746,-0.6768,-0.6812,-0.6845,-0.6884,-0.6909,-0.6937,-0.6942,-0.6944,-0.6933,-0.6918,-0.6927,-0.6961,-0.6942,-0.6943,-0.6943,-0.6943,-0.6944,-0.6451,-0.6463,-0.65,-0.6528,-0.6555,-0.6582,-0.6598,-0.663,-0.6657,-0.6695,-0.6718,-0.6749,-0.6787,-0.6842,-0.6866,-0.6891,-0.6902,-0.6904,-0.6905,-0.6905,-0.6901,-0.6913,-0.6899,-0.6899,-0.6899,-0.6899,-0.6899,0,-0.6422,-0.6448,-0.6473,-0.6514,-0.6536,-0.6559,-0.6594,-0.6611,-0.6637,-0.667,-0.6697,-0.6733,-0.6765,-0.6807,-0.6842,-0.6854,-0.6868,-0.6862,-0.6862,-0.6868,-0.6889,-0.6885,-0.6851,-0.6851,-0.6851,-0.6851,-0.6851,-0.6851,-0.6409,-0.6431,-0.6454,-0.6489,-0.6516,-0.6545,-0.6563,-0.6589,-0.6616,-0.6654,-0.668,-0.6707,-0.6744,-0.6782,-0.6813,-0.6825,-0.6836,-0.6827,-0.6842,-0.6862,-0.6866,-0.687,-0.6866,-0.6829,-0.6829,-0.6819,-0.6819,-0.6819]},{"header":{"parameterUnit":"m.s-1","parameterCategory":1,"la1":30.2991,"la2":30.254,"lo1":-89.0895,"lo2":-89.0444,"dy":0.0017,"dx":0.0017,"nx":28,"ny":28,"refTime":"2025-04-04T09:00:00:Z","depth":0,"parameterNumber":3,"parameterNumberName":"V-component_of_WINDS"},"data":[0,0,0,0,0,0,0,0,0,0,0,0,0,0,0,0,0,0,0,0,0,0,0,0,0,0,0,0,0,0,0,0,0,0,0,0,0,0,0,0,0,0,0,0,0,0,0,0,0,0,0,0,0,0,0,0,0,0,8.1945,8.1946,0,8.2052,8.2054,8.2055,8.1999,8.1996,8.1993,8.199,8.2094,8.2099,8.2105,0,0,0,0,0,0,0,0,0,0,0,0,0,8.1688,8.1693,8.1945,8.1947,8.1948,8.2052,8.2054,8.2055,8.1999,8.1996,8.1992,8.1989,8.2092,8.2099,8.2105,0,0,0,0,0,0,0,0,0,0,0,0,0,8.1798,8.1694,8.1945,8.1933,8.1933,8.2052,8.2054,8.2056,8.2,8.1996,8.1991,8.1987,8.209,8.2098,8.2106,8.2242,0,0,8.2131,8.2135,0,0,0,0,0,0,0,0,8.1791,8.1807,8.1933,8.1934,8.1934,8.2008,8.2001,8.2118,8.2001,8.1974,8.199,8.1985,8.2069,8.2078,8.2108,8.2247,8.2251,8.2132,8.2137,8.214,8.2143,0,0,0,0,0,0,0,8.1784,8.1802,8.1987,8.1935,8.1936,8.192,8.1931,8.2023,8.2044,8.1976,8.1972,8.1986,8.2068,8.21,8.211,8.2253,8.2132,8.2139,8.2144,8.2147,8.2511,8.2516,0,0,0,0,0,0,8.1778,8.1796,8.1984,8.1991,8.1851,8.1929,8.1941,8.1988,8.2043,8.2047,8.199,8.1983,8.2088,8.21,8.2113,8.2277,8.214,8.2148,8.2152,8.2506,8.2512,8.2517,0,0,0,0,0,0,8.1772,8.1795,8.198,8.1893,8.1915,8.1938,8.1992,8.1993,8.2025,8.2053,8.2056,8.2019,8.2085,8.2102,8.2211,8.228,8.2151,8.2159,8.2501,8.2508,8.2515,8.2606,0,0,0,0,0,0,8.1765,8.1793,8.1846,8.1894,8.192,8.2078,8.1996,8.1998,8.204,8.2032,8.2081,8.2085,8.2083,8.2199,8.2219,8.2289,8.2165,8.2495,8.2504,8.2512,8.2597,8.2615,8.2631,0,0,0,0,0,8.1756,8.1865,8.1849,8.1872,8.1986,8.2082,8.2096,8.2093,8.2045,8.2098,8.2117,8.2083,8.2269,8.2211,8.2233,8.2306,8.249,8.2501,8.2512,8.2589,8.2611,8.263,0,0,0,0,0,0,8.1822,8.1871,8.1854,8.1982,8.2029,8.2072,8.2138,8.2117,8.2176,8.2166,8.2158,8.217,8.2285,8.2306,8.224,8.2441,8.2372,8.2388,8.2423,8.2445,8.2462,8.2454,8.2172,0,0,0,0,0,8.1852,8.1927,8.1965,8.2075,8.2099,8.2115,8.2156,8.2151,8.2197,8.2216,8.2242,8.2288,8.2357,8.2402,8.2466,8.26,8.261,8.2661,8.2678,8.2692,8.2705,8.2779,8.2803,8.2553,8.2553,8.2552,0,0,8.1913,8.195,8.1997,8.2089,8.2124,8.2201,8.2132,8.2215,8.2272,8.2228,8.2334,8.2356,8.2406,8.2529,8.2584,8.255,8.2777,8.2705,8.2716,8.2722,8.2793,8.2816,8.2837,8.256,8.2559,8.2558,0,0,8.2065,8.21,8.2196,8.2234,8.2289,8.23,8.2323,8.2371,8.2384,8.2491,8.2461,8.2527,8.2645,8.2683,8.2718,8.2887,8.2859,8.2908,8.2997,8.307,8.3089,8.3107,8.3169,8.3191,8.2922,8.2922,8.2922,0,8.2134,8.225,8.2248,8.2335,8.2377,8.2344,8.2441,8.2477,8.2549,8.2579,8.254,8.269,8.2721,8.2853,8.2895,8.2924,8.295,8.2902,8.3087,8.3105,8.3121,8.318,8.3203,8.2928,8.2927,8.2926,8.2926,0,8.2333,8.2414,8.2485,8.256,8.2609,8.2701,8.2712,8.2762,8.2753,8.2767,8.2877,8.2914,8.2986,8.3017,8.3007,8.3149,8.3126,8.3088,8.3018,8.3151,8.3206,8.3228,8.2936,8.2934,8.2932,8.2931,0,0,8.2527,8.2602,8.2628,8.2663,8.2723,8.2785,8.2875,8.2949,8.2993,8.3044,8.312,8.3223,8.3189,8.3228,8.3222,8.3286,8.342,8.3239,8.324,8.3273,8.358,8.3609,8.3635,8.3402,8.3406,8.341,8.3576,0,8.2684,8.2845,8.2847,8.2994,8.307,8.3041,8.312,8.3165,8.3181,8.3246,8.3263,8.3337,8.3285,8.3309,8.3371,8.3391,8.3481,8.3378,8.3472,8.3476,8.3462,8.3664,8.3695,8.385,8.3597,8.3601,8.3604,0,8.2888,8.2951,8.3107,8.3158,8.319,8.3261,8.333,8.3393,8.3444,8.3451,8.3498,8.3483,8.3575,8.3503,8.363,8.356,8.3598,8.3614,8.362,8.3629,8.3548,8.3679,8.3899,8.3923,8.3637,8.3635,8.3632,0,8.3016,8.3139,8.3249,8.3279,8.3341,8.3392,8.342,8.3467,8.3512,8.3572,8.3601,8.367,8.3707,8.3761,8.3765,8.3712,8.3893,8.3821,8.3902,8.3902,8.3941,8.3939,8.4172,8.3965,8.3965,8.3964,8.3964,0,8.3192,8.3289,8.3308,8.3375,8.3483,8.3484,8.359,8.3613,8.3656,8.3727,8.3705,8.3772,8.3773,8.3841,8.3845,8.3951,8.3967,8.3976,8.3976,8.3978,8.3978,8.4004,8.3993,8.3971,8.3969,8.3968,8.3967,0,8.3353,8.3369,8.3488,8.3539,8.3554,8.3631,8.3674,8.3738,8.3753,8.3844,8.3865,8.3888,8.3968,8.3978,8.407,8.4072,8.42,8.4188,8.4184,8.4182,8.4263,8.4256,8.4521,8.4557,8.4326,8.4328,8.433,0,8.3464,8.3539,8.3599,8.3646,8.3678,8.3754,8.3801,8.3805,8.3854,8.392,8.3976,8.4054,8.4117,8.4245,8.427,8.434,8.433,8.4419,8.4341,8.4342,8.4333,8.4329,8.4337,8.4434,8.4436,8.4438,8.444,0,8.366,8.3666,8.3735,8.3809,8.3867,8.3924,8.3978,8.4017,8.4028,8.4085,8.4167,8.4216,8.4312,8.439,8.4461,8.4488,8.4467,8.4465,8.4487,8.4491,8.4486,8.4492,8.4226,8.4458,8.4456,8.4455,8.4454,8.4453,8.3801,8.3867,8.3921,8.3999,8.4041,8.4093,8.4157,8.4181,8.4251,8.4331,8.4329,8.442,8.447,8.4563,8.4596,8.4667,8.4638,8.467,8.4679,8.4687,8.4696,8.4475,8.468,8.4679,8.4679,8.4678,8.4678,0,8.3997,8.4031,8.4104,8.4182,8.4244,8.4221,8.428,8.4333,8.4415,8.4465,8.4528,8.4624,8.47,8.4732,8.4806,8.4857,8.4849,8.4877,8.4873,8.4881,8.4717,8.4691,8.4882,8.4882,8.4882,8.4882,8.4882,8.4882,8.4107,8.4218,8.423,8.4362,8.4394,8.4486,8.4522,8.4569,8.461,8.4719,8.4783,8.4804,8.4847,8.4925,8.4994,8.5001,8.503,8.5062,8.5065,8.4912,8.4892,8.4872,8.4847,8.5068,8.5069,8.5223,8.5225,8.5226]}]]